Regional Weather Roundup
Issued by NWS Green Bay, WI

Home | Current Version | Previous Version | Text Only | Print | Product List | Glossary On
Versions: 1 2 3 4 5 6 7 8 9 10 11 12 13 14 15 16 17 18 19 20 21 22 23 24 25 26 27 28 29 30 31 32 33 34 35 36 37 38 39 40 41 42 43 44 45 46 47 48 49 50
000
ASUS43 KGRB 062300
RWRGRB

NORTH-CENTRAL AND NORTHEAST WISCONSIN REGIONAL WEATHER ROUNDUP
NATIONAL WEATHER SERVICE GREEN BAY WI
500 PM CST SAT FEB 06 2016

WIZ005-009-010>012-018-019-070000-
NORTH CENTRAL WISCONSIN

CITY           SKY/WX    TMP DP  RH WIND       PRES   REMARKS
IRONWOOD       CLOUDY    34  23  64 S10G20    29.82F
MANITOWISH WTR NOT AVBL
ARBOR VITAE    NOT AVBL
EAGLE RIVER    NOT AVBL
LAND O LAKES   NOT AVBL
RHINELANDER    CLOUDY    30  20  66 S9        29.93F
PHILLIPS       NOT AVBL
ANTIGO         NOT AVBL
TOMAHAWK       NOT AVBL
MERRILL        NOT AVBL
$$

WIZ013-073-070000-
NORTHEAST WISCONSIN

CITY           SKY/WX    TMP DP  RH WIND       PRES   REMARKS
IRON MOUNTAIN  CLOUDY    30  20  66 S9        29.95F HAZE
MARINETTE      CLOUDY    30  23  74 SW7       30.04S
$$

WIZ017-030-035>037-045-070000-
CENTRAL WISCONSIN

CITY           SKY/WX    TMP DP  RH WIND       PRES   REMARKS
MEDFORD        NOT AVBL
WAUSAU         CLOUDY    33  22  63 S7        29.97F
MOSINEE        PTCLDY    30  25  80 S9        30.00F
MARSHFIELD     PTCLDY    33  20  58 SW10      29.98F
WISC RAPIDS    CLOUDY    32  22  66 SW10      30.04S
STEVENS POINT  NOT AVBL
WAUPACA        NOT AVBL
SHAWANO        NOT AVBL
CLINTONVILLE   NOT AVBL
WAUTOMA        NOT AVBL
$$

WIZ038-039-048-051-070000-
FOX VALLEY

CITY           SKY/WX    TMP DP  RH WIND       PRES   REMARKS
NWS GREEN BAY  CLOUDY    30  24  78 SW8       30.06F
APPLETON       MOCLDY    30  23  74 S9        30.04F
OSHKOSH        MOCLDY    30  23  75 S10       30.07F
FOND DU LAC    CLEAR     31  24  75 SW10      30.08F
$$

WIZ022-050-052-070000-
EAST CENTRAL WISCONSIN

CITY           SKY/WX    TMP DP  RH WIND       PRES   REMARKS
EPHRAIM        NOT AVBL
STURGEON BAY   CLOUDY    28  21  74 SW9       30.07F
MANITOWOC      NOT AVBL
SHEBOYGAN      CLOUDY    31  24  75 SW7       30.09S
$$

LMZ563-521-522-541>543-070000-
LAKESHORE

STATION/POSITION TIME  TEMP    WIND        PRES    VSBY  WAVE
                       AIR SEA DIR/SP/G                  HT/PER
                 (UTC) (F)     (DEG/KT/KT) (MB)    (MI)  (FT/S)
SHEBOYGAN LKSHOR 2200   32     230/  9/ 10 1020.1F
KEWAUNEE LKSHORE 2200   30                 1017.8S
CHAMBERS ISLAND  2200   29     190/  4/  8 1017.6F
MENOMINEE LKSHOR 2200   30                 1016.4F
$$



USA.gov is the U.S. government's official web portal to all federal, state and local government web resources and services.